Wind_Speed
22 22 23 23 24 24 23 22 22 22 21 21 21 21 21 21 21 19 19 20 21 23 25 26 27 27 27 27 27 28 29 29 30 30 31 33 35 38 40 39 38 39
22 23 24 24 24 25 24 23 23 23 22 22 21 22 22 22 22 22 21 21 21 22 23 24 26 28 29 29 29 29 29 30 30 30 31 32 33 35 38 40 40 40
22 23 24 24 24 25 24 23 23 23 23 23 22 23 23 23 23 23 23 23 23 24 24 24 24 26 28 30 31 31 30 30 30 31 32 32 32 32 34 37 39 41
22 23 24 24 24 24 23 23 23 23 23 23 23 24 24 25 25 24 25 25 25 27 27 27 26 27 28 29 31 33 33 32 31 31 32 33 32 32 33 34 36 38
22 23 23 24 24 24 24 24 24 23 24 24 24 25 26 27 27 27 27 27 27 28 29 30 29 29 30 30 30 32 33 34 34 33 33 33 33 33 33 33 34 36
22 23 24 24 24 24 24 25 25 25 26 26 27 27 28 29 29 29 29 29 28 29 29 31 31 31 31 32 32 31 32 33 34 35 35 34 34 34 34 35 34 35
23 24 24 25 25 25 25 26 26 27 27 28 29 29 30 30 30 30 30 30 30 29 29 30 31 32 32 33 33 32 32 33 34 35 36 36 36 34 35 36 36 35
26 25 25 25 25 25 26 26 27 28 29 29 30 30 31 31 31 31 31 31 31 30 30 30 31 32 32 33 34 33 33 33 33 34 36 37 37 36 36 36 37 36
28 28 27 26 25 25 26 26 27 28 29 30 30 31 32 32 32 32 32 32 32 32 31 31 31 31 33 34 34 34 34 33 33 34 35 37 38 38 37 37 38 38
29 29 28 27 26 26 26 27 28 29 30 30 31 31 32 33 33 33 33 33 33 33 32 32 32 32 33 34 34 35 35 34 34 33 34 35 37 38 39 39 40 40
29 29 29 27 27 27 28 29 29 30 31 31 32 32 33 34 34 35 35 35 35 34 33 33 34 33 33 34 35 35 35 35 35 34 34 34 35 37 39 41 42 43
29 29 29 28 28 28 29 30 31 31 32 32 33 34 35 35 36 37 37 37 36 36 35 35 35 35 34 35 36 37 37 36 36 36 35 35 34 35 37 40 42 44
29 29 29 29 29 29 30 30 31 32 33 33 34 35 36 37 38 39 39 39 38 38 38 37 37 36 36 36 37 38 38 38 38 38 38 37 36 35 36 38 41 43
30 30 30 29 29 29 30 31 32 33 34 34 35 36 38 39 40 41 42 42 41 40 40 39 39 38 38 38 39 39 40 40 40 40 40 39 39 37 36 37 39 41
31 31 31 30 29 29 30 31 32 33 34 35 36 38 39 41 42 43 43 43 42 42 41 41 41 40 40 40 41 41 41 42 42 42 41 41 41 41 39 38 38 39
31 31 31 30 29 30 30 31 32 33 34 35 37 39 41 42 44 44 44 43 43 43 43 43 43 42 41 41 41 42 42 42 42 43 43 43 43 44 43 41 39 39
30 30 29 29 29 30 31 32 32 33 35 37 39 41 42 43 44 45 45 44 43 43 43 43 43 42 41 40 39 40 41 42 43 43 43 44 45 45 46 45 43 41
30 29 28 28 29 30 31 32 32 34 36 38 41 43 44 44 44 44 45 44 44 43 42 41 41 39 38 38 38 39 41 42 43 43 44 44 45 46 46 47 46 45
29 28 28 29 29 30 30 31 33 34 37 39 41 44 44 44 43 44 44 43 42 42 40 39 38 37 36 37 38 39 40 42 43 44 44 45 45 46 47 48 48 48
27 27 28 28 29 29 30 31 33 34 37 40 42 44 44 43 43 42 42 41 40 40 39 38 37 36 36 37 39 40 41 42 44 45 45 45 46 47 48 49 50 50
26 27 27 27 28 29 30 31 33 35 38 41 43 44 43 43 42 41 40 39 39 38 38 37 37 37 37 39 40 40 41 43 45 46 47 48 48 49 50 51 52 52
27 25 25 26 28 29 30 32 34 37 39 42 44 45 43 42 40 39 39 39 38 39 39 39 39 39 40 41 42 42 43 44 46 49 50 51 52 52 53 55 55 55
25 22 23 26 27 29 32 34 37 39 40 42 45 45 43 41 39 39 39 39 39 40 41 41 42 42 43 44 45 46 47 49 50 53 54 55 56 56 57 58 58 58
22 20 22 26 28 31 34 36 39 40 41 43 44 43 41 39 39 39 39 40 41 42 43 44 45 46 47 48 49 50 52 53 55 57 58 59 60 60 60 61 61 61
22 22 24 26 29 32 35 37 40 41 42 43 42 40 39 39 39 39 40 41 42 43 45 46 48 49 50 52 53 54 56 57 58 60 61 61 61 61 61 61 61 62
21 22 25 27 30 33 36 38 39 39 40 41 39 38 38 39 39 40 40 41 43 44 46 48 50 51 53 54 55 57 58 59 60 60 59 58 57 56 56 56 57 57
Wind_Direction
283 284 284 284 284 283 283 284 284 282 279 276 273 273 275 276 277 278 280 283 286 287 288 289 289 287 285 283 280 278 277 275 272 269 266 264 262 262 261 256 252 254
284 284 283 283 283 283 284 285 285 283 281 277 274 273 274 274 275 276 277 278 280 282 283 285 288 288 288 286 284 281 279 278 276 274 271 268 265 263 263 262 258 255
282 282 282 282 282 282 284 285 284 283 281 279 276 275 274 275 275 276 277 279 280 282 281 281 283 285 286 286 285 284 282 280 278 277 275 273 270 266 263 263 262 260
282 282 282 282 282 283 284 284 283 283 281 279 277 276 276 276 277 278 279 280 283 285 284 282 282 283 283 283 282 282 282 281 280 279 277 275 274 270 266 263 262 261
284 283 283 282 282 282 282 282 282 281 279 278 277 277 278 279 280 281 282 283 284 287 287 286 285 284 283 282 280 280 280 280 280 279 277 275 274 271 269 266 262 260
285 284 283 282 281 281 280 280 279 279 278 277 278 279 279 280 280 281 282 283 284 286 288 288 287 286 284 283 281 280 279 278 278 277 276 274 273 271 270 268 264 261
289 287 285 283 281 279 278 278 278 277 278 279 279 280 280 280 281 281 281 281 282 283 285 287 287 287 286 284 282 281 280 278 276 274 274 273 272 270 268 268 267 265
294 293 290 286 284 281 280 279 278 279 280 281 281 281 281 281 282 282 282 282 282 281 282 283 285 287 287 286 284 283 282 280 277 274 272 271 270 269 267 266 266 266
296 297 294 291 289 286 284 283 282 283 282 283 283 283 283 284 285 285 284 284 283 283 283 283 283 284 285 286 285 284 283 281 279 276 273 270 268 267 266 263 262 262
296 297 295 293 291 290 288 287 286 285 285 285 286 287 288 288 289 288 287 287 285 285 284 283 282 282 282 284 284 284 283 282 281 279 276 272 268 266 264 261 259 258
295 295 294 292 291 290 289 288 287 287 287 288 289 291 292 292 292 291 290 288 287 286 285 284 282 281 280 281 282 283 283 283 282 280 278 276 272 267 264 261 259 257
293 293 292 290 289 289 288 288 288 289 290 292 293 294 295 294 294 292 291 290 289 288 287 285 284 281 280 280 281 282 282 282 281 280 278 277 274 271 267 262 260 258
292 291 289 289 289 289 289 289 290 291 293 295 296 296 296 296 295 293 292 292 291 290 289 287 285 282 281 280 280 280 280 280 279 279 278 277 275 272 269 266 262 259
291 290 289 289 289 288 289 290 292 293 295 296 297 296 295 294 293 292 292 292 292 291 289 287 284 282 280 280 279 278 278 277 277 277 277 276 274 272 270 268 265 262
290 289 289 289 289 289 289 290 292 293 294 294 293 292 292 292 291 291 291 292 292 290 287 286 283 281 280 279 279 278 276 275 275 276 276 275 274 272 269 267 266 264
286 287 288 288 288 288 289 290 291 291 291 291 290 290 291 291 291 292 292 292 291 289 286 285 284 283 282 280 279 278 276 275 275 275 275 275 274 272 269 266 264 264
283 284 285 285 285 286 287 288 289 290 290 290 291 291 292 292 293 293 293 292 290 288 287 285 284 284 283 281 280 278 277 276 275 274 274 273 273 273 271 268 265 263
282 284 285 284 284 286 288 288 289 290 291 292 293 294 294 294 295 294 294 293 291 288 286 284 283 282 282 282 280 279 277 276 274 273 272 271 271 271 270 269 267 264
284 285 284 284 286 288 288 289 290 291 292 294 295 296 296 296 296 296 295 293 290 287 285 283 281 281 281 281 279 278 276 275 274 272 271 270 269 269 269 268 267 264
285 284 285 287 288 289 289 290 291 293 295 296 297 297 298 299 299 298 295 292 288 286 284 282 281 280 279 278 276 275 274 273 273 272 271 270 269 268 268 267 266 264
281 282 287 289 289 290 292 293 295 297 299 300 300 300 301 302 302 299 294 290 287 285 283 282 281 280 278 277 275 274 273 272 272 272 272 272 271 270 269 267 266 265
279 281 287 290 292 295 297 299 301 304 306 306 304 303 304 305 302 297 293 290 288 286 285 283 282 280 279 278 277 276 276 274 274 273 272 271 270 269 268 267 266 265
280 283 288 293 298 302 304 307 308 309 310 309 306 305 306 305 300 296 293 291 289 288 287 286 285 284 283 282 281 280 279 279 278 277 275 274 271 269 267 266 264 263
293 298 301 304 307 308 309 311 311 311 311 308 306 306 306 303 299 297 295 293 292 291 291 290 289 289 288 287 285 285 284 283 282 281 279 277 275 272 269 266 263 261
307 309 308 308 309 309 311 312 312 312 310 307 307 307 305 302 300 299 297 296 295 295 295 294 293 292 292 291 290 289 288 286 285 284 282 280 277 275 271 268 264 260
310 310 309 310 310 311 312 313 312 311 309 307 307 307 305 303 302 301 300 299 299 299 299 298 297 295 294 294 293 292 291 289 288 285 283 280 277 274 271 268 265 261
Height
3101 3101 3101 3101 3101 3100 3100 3101 3100 3100 3100 3100 3100 3100 3099 3099 3099 3099 3099 3098 3098 3098 3097 3097 3097 3097 3097 3098 3098 3098 3099 3100 3100 3102 3103 3103 3104 3105 3105 3107 3109 3110
3098 3098 3098 3098 3098 3098 3098 3098 3098 3097 3097 3097 3097 3097 3097 3097 3096 3096 3096 3096 3096 3095 3095 3095 3095 3094 3094 3094 3094 3095 3095 3096 3096 3097 3098 3099 3100 3101 3101 3102 3103 3105
3096 3096 3096 3096 3095 3095 3095 3095 3095 3095 3095 3094 3094 3094 3094 3094 3094 3093 3093 3093 3093 3092 3092 3092 3092 3092 3091 3091 3090 3091 3091 3092 3093 3093 3093 3094 3095 3096 3097 3097 3098 3099
3093 3093 3093 3093 3093 3093 3093 3093 3092 3092 3092 3092 3091 3091 3091 3091 3091 3090 3090 3090 3090 3089 3089 3089 3089 3089 3089 3088 3087 3087 3087 3088 3089 3089 3089 3089 3090 3091 3092 3093 3094 3094
3090 3090 3090 3090 3090 3090 3090 3090 3090 3090 3089 3089 3088 3088 3088 3088 3087 3087 3087 3087 3087 3086 3085 3085 3085 3085 3085 3084 3084 3084 3084 3084 3084 3085 3085 3085 3086 3086 3087 3088 3089 3090
3088 3087 3087 3087 3087 3087 3087 3087 3087 3087 3086 3086 3085 3085 3085 3085 3085 3084 3084 3084 3084 3083 3083 3082 3081 3081 3080 3080 3080 3080 3080 3080 3080 3080 3080 3081 3082 3082 3082 3083 3084 3085
3085 3085 3085 3084 3084 3084 3084 3084 3084 3083 3083 3083 3082 3082 3081 3081 3081 3081 3081 3081 3080 3080 3079 3078 3078 3077 3076 3075 3075 3075 3075 3076 3076 3076 3076 3076 3077 3078 3078 3078 3078 3080
3082 3082 3082 3081 3081 3081 3081 3081 3080 3080 3080 3079 3079 3078 3078 3077 3077 3077 3077 3077 3077 3076 3076 3075 3074 3073 3072 3071 3070 3070 3070 3071 3071 3071 3071 3071 3072 3073 3074 3074 3074 3075
3078 3078 3078 3078 3078 3077 3077 3077 3076 3076 3076 3075 3075 3074 3074 3073 3073 3073 3073 3072 3072 3072 3071 3071 3070 3069 3068 3067 3066 3066 3066 3066 3066 3066 3066 3066 3067 3067 3069 3069 3070 3070
3075 3075 3075 3074 3074 3074 3073 3073 3072 3072 3071 3071 3070 3070 3069 3069 3069 3068 3068 3067 3067 3067 3066 3066 3065 3064 3063 3062 3062 3061 3061 3061 3061 3061 3061 3061 3062 3062 3063 3064 3064 3065
3072 3072 3071 3071 3070 3070 3069 3069 3068 3068 3067 3067 3066 3066 3065 3065 3064 3063 3062 3062 3062 3062 3061 3061 3060 3059 3059 3058 3057 3057 3057 3056 3056 3056 3056 3056 3056 3057 3057 3057 3058 3059
3069 3069 3068 3067 3067 3066 3066 3065 3064 3063 3063 3062 3062 3061 3061 3060 3059 3058 3057 3056 3056 3056 3056 3056 3055 3054 3054 3053 3053 3052 3052 3052 3051 3051 3050 3050 3051 3051 3051 3052 3052 3052
3066 3065 3065 3064 3063 3062 3062 3061 3060 3059 3059 3058 3058 3057 3056 3055 3053 3052 3051 3051 3051 3050 3050 3050 3050 3049 3049 3048 3048 3047 3047 3046 3046 3045 3045 3045 3045 3046 3046 3046 3046 3047
3061 3061 3061 3060 3059 3059 3058 3057 3056 3056 3055 3054 3053 3052 3051 3050 3049 3047 3046 3046 3046 3045 3045 3044 3044 3043 3043 3043 3042 3042 3041 3040 3040 3040 3039 3039 3039 3040 3040 3040 3041 3041
3057 3057 3056 3056 3055 3055 3054 3053 3053 3052 3052 3051 3049 3048 3046 3045 3044 3043 3042 3041 3040 3040 3038 3038 3037 3037 3037 3037 3037 3036 3035 3035 3034 3034 3033 3033 3033 3033 3034 3035 3035 3035
3054 3053 3053 3052 3052 3051 3051 3050 3050 3049 3048 3047 3045 3044 3042 3040 3039 3038 3037 3036 3035 3034 3032 3032 3031 3031 3031 3031 3031 3030 3029 3029 3028 3028 3027 3027 3026 3027 3027 3028 3029 3030
3051 3050 3050 3050 3049 3048 3048 3047 3046 3045 3044 3042 3040 3039 3037 3035 3034 3032 3031 3030 3029 3028 3027 3026 3025 3025 3025 3025 3025 3024 3023 3022 3022 3022 3021 3020 3020 3020 3020 3021 3023 3023
3047 3047 3047 3046 3045 3045 3044 3043 3042 3040 3039 3037 3035 3033 3031 3030 3029 3027 3026 3024 3023 3021 3021 3020 3019 3019 3019 3019 3018 3018 3017 3016 3015 3015 3015 3014 3014 3013 3013 3014 3015 3016
3043 3043 3043 3042 3041 3041 3040 3039 3037 3036 3034 3032 3030 3028 3026 3025 3024 3022 3020 3018 3016 3015 3014 3014 3014 3014 3013 3013 3012 3011 3010 3009 3008 3008 3008 3008 3007 3007 3007 3007 3007 3008
3039 3039 3039 3038 3037 3037 3036 3035 3034 3032 3030 3028 3025 3023 3021 3020 3018 3016 3014 3012 3010 3009 3008 3008 3008 3008 3008 3007 3006 3005 3004 3002 3001 3000 3000 3000 3000 3000 3000 3000 3000 3000
3035 3035 3035 3034 3033 3033 3031 3030 3029 3027 3025 3022 3019 3017 3016 3014 3012 3010 3008 3006 3004 3003 3002 3002 3002 3001 3001 3000 2999 2999 2998 2996 2994 2993 2993 2993 2993 2993 2992 2992 2992 2992
3031 3031 3031 3030 3030 3029 3027 3026 3024 3022 3020 3017 3014 3012 3011 3009 3007 3004 3002 3000 2998 2997 2996 2995 2995 2995 2994 2993 2992 2991 2990 2989 2987 2986 2985 2984 2984 2985 2984 2984 2984 2984
3027 3028 3027 3027 3026 3025 3023 3021 3019 3017 3015 3012 3009 3007 3006 3004 3001 2998 2996 2994 2993 2991 2990 2988 2988 2988 2987 2985 2984 2983 2982 2980 2979 2977 2976 2975 2975 2975 2975 2974 2975 2976
3024 3023 3023 3022 3022 3020 3019 3017 3015 3013 3010 3007 3004 3002 3001 2998 2995 2993 2991 2989 2987 2986 2984 2982 2980 2980 2978 2977 2975 2974 2972 2971 2969 2966 2965 2964 2963 2963 2964 2963 2964 2966
3020 3020 3020 3019 3018 3017 3015 3013 3011 3008 3005 3002 2999 2998 2995 2993 2990 2988 2986 2984 2982 2980 2978 2975 2973 2971 2970 2968 2966 2965 2962 2960 2958 2955 2953 2952 2950 2950 2951 2951 2952 2954
3017 3017 3017 3016 3015 3013 3011 3009 3006 3003 3000 2996 2995 2993 2991 2988 2985 2983 2980 2979 2976 2974 2971 2969 2966 2963 2962 2959 2957 2954 2952 2949 2946 2943 2941 2939 2938 2938 2938 2940 2941 2943